Location: Unspecified
(0.0000°N, 0.0000°E)
Time: 17:02:33
(UTC+00:00)

ARIANE 6 FM1 Upper Stage - Pass Details

Date: 06 March 2026
Orbit: 523 x 606 km, 62.0° (Epoch: 15 March)

Event Time Altitude Azimuth Distance (km) Brightness Sun altitude
Exits shadow 04:16:21 21° 35° (NE) 1,305 4.7 -28.6°
Drops below altitude 10° 04:17:47 10° 31° (NNE) 1,856 5.6 -28.2°
Sets 04:19:58 0° 29° (NNE) 2,735 6.5 -27.7°
